Time,TemperatureF,DewpointF,PressureIn,WindDirection,WindDirectionDegrees,WindSpeedMPH,WindSpeedGustMPH,Humidity,HourlyPrecipIn,Conditions,Clouds,dailyrainin,SoftwareType,DateUTC
2013-08-31 00:01:00,72.7,67.9,29.69,WSW,248,3.5,3.5,85,0.00,CLR,,0.00,WeatherDisplay:10.37,2013-08-31 04:01:00,
2013-08-31 00:03:00,72.5,68.1,29.69,WSW,248,2.7,2.7,86,0.00,CLR,,0.00,WeatherDisplay:10.37,2013-08-31 04:03:00,
2013-08-31 00:06:00,72.5,68.1,29.69,West,270,2.7,2.7,86,0.00,CLR,,0.00,WeatherDisplay:10.37,2013-08-31 04:06:00,
2013-08-31 00:11:00,72.3,67.9,29.69,SW,225,3.2,3.2,86,0.00,CLR,,0.00,WeatherDisplay:10.37,2013-08-31 04:11:00,
2013-08-31 00:16:00,72.3,67.9,29.69,West,270,2.3,2.3,86,0.00,CLR,,0.00,WeatherDisplay:10.37,2013-08-31 04:16:00,
2013-08-31 00:22:00,72.1,67.7,29.69,SW,225,2.7,2.7,86,0.00,CLR,,0.00,WeatherDisplay:10.37,2013-08-31 04:22:00,
2013-08-31 00:27:00,72.1,67.7,29.69,West,270,3.5,3.5,86,0.00,CLR,,0.00,WeatherDisplay:10.37,2013-08-31 04:27:00,
2013-08-31 00:32:00,72.1,67.7,29.69,WSW,248,2.3,2.3,86,0.00,CLR,,0.00,WeatherDisplay:10.37,2013-08-31 04:32:00,
2013-08-31 00:37:00,72.0,67.9,29.69,SW,225,0.0,0.0,87,0.00,CLR,,0.00,WeatherDisplay:10.37,2013-08-31 04:37:00,
2013-08-31 00:42:00,72.0,67.9,29.69,SW,225,4.6,4.6,87,0.00,CLR,,0.00,WeatherDisplay:10.37,2013-08-31 04:42:00,
2013-08-31 00:47:00,72.0,67.9,29.70,SW,225,2.3,2.3,87,0.00,CLR,,0.00,WeatherDisplay:10.37,2013-08-31 04:47:00,
2013-08-31 00:52:00,71.8,67.7,29.70,WSW,248,2.3,2.3,87,0.00,CLR,,0.00,WeatherDisplay:10.37,2013-08-31 04:52:00,
2013-08-31 00:57:00,71.8,67.7,29.70,SW,225,2.3,2.3,87,0.00,CLR,,0.00,WeatherDisplay:10.37,2013-08-31 04:57:00,
2013-08-31 01:02:00,71.8,67.7,29.70,SW,225,2.7,2.7,87,0.00,CLR,,0.00,WeatherDisplay:10.37,2013-08-31 05:02:00,
2013-08-31 01:07:00,71.6,67.5,29.70,South,180,2.7,2.7,87,0.00,CLR,,0.00,WeatherDisplay:10.37,2013-08-31 05:07:00,
2013-08-31 01:12:00,71.6,67.5,29.70,WSW,248,2.3,2.3,87,0.00,CLR,,0.00,WeatherDisplay:10.37,2013-08-31 05:12:00,
2013-08-31 01:17:00,71.6,67.9,29.70,WSW,248,2.7,2.7,88,0.00,CLR,,0.00,WeatherDisplay:10.37,2013-08-31 05:17:00,
2013-08-31 01:22:00,71.6,67.9,29.69,South,180,2.7,2.7,88,0.00,CLR,,0.00,WeatherDisplay:10.37,2013-08-31 05:22:00,
2013-08-31 01:27:00,71.4,67.7,29.69,WSW,248,2.3,2.3,88,0.00,CLR,,0.00,WeatherDisplay:10.37,2013-08-31 05:27:00,
2013-08-31 01:32:00,71.2,67.5,29.69,SW,225,2.3,2.3,88,0.00,CLR,,0.00,WeatherDisplay:10.37,2013-08-31 05:32:00,
2013-08-31 01:37:00,71.2,67.5,29.69,SW,225,2.3,2.3,88,0.00,CLR,,0.00,WeatherDisplay:10.37,2013-08-31 05:37:00,
2013-08-31 01:42:00,71.1,67.4,29.69,SSW,202,2.3,2.3,88,0.00,CLR,,0.00,WeatherDisplay:10.37,2013-08-31 05:42:00,
2013-08-31 01:47:00,71.1,67.7,29.69,WSW,248,2.3,2.3,89,0.00,CLR,,0.00,WeatherDisplay:10.37,2013-08-31 05:47:00,
2013-08-31 01:52:00,70.9,67.5,29.69,SSW,202,2.7,2.7,89,0.00,CLR,,0.00,WeatherDisplay:10.37,2013-08-31 05:52:00,
2013-08-31 01:57:00,70.9,67.5,29.69,SW,225,2.3,2.3,89,0.00,CLR,,0.00,WeatherDisplay:10.37,2013-08-31 05:57:00,
2013-08-31 02:02:00,70.7,67.3,29.69,SW,225,2.7,2.8,89,0.00,CLR,,0.00,WeatherDisplay:10.37,2013-08-31 06:02:00,
2013-08-31 02:07:00,70.7,67.3,29.69,SW,225,2.3,2.3,89,0.00,CLR,,0.00,WeatherDisplay:10.37,2013-08-31 06:07:00,
2013-08-31 02:12:00,70.5,67.1,29.68,SW,225,2.7,2.8,89,0.00,CLR,,0.00,WeatherDisplay:10.37,2013-08-31 06:12:00,
2013-08-31 02:17:00,70.5,67.1,29.68,WSW,248,4.6,4.6,89,0.00,CLR,,0.00,WeatherDisplay:10.37,2013-08-31 06:17:00,
2013-08-31 02:22:00,70.7,67.3,29.68,WSW,248,3.5,3.5,89,0.00,CLR,,0.00,WeatherDisplay:10.37,2013-08-31 06:22:00,
2013-08-31 02:27:00,70.7,67.3,29.68,WSW,248,2.7,2.7,89,0.00,CLR,,0.00,WeatherDisplay:10.37,2013-08-31 06:27:00,
2013-08-31 02:32:00,70.7,67.3,29.68,WSW,248,3.5,3.5,89,0.00,CLR,,0.00,WeatherDisplay:10.37,2013-08-31 06:32:00,
2013-08-31 02:37:00,70.7,67.3,29.68,SW,225,3.5,3.5,89,0.00,CLR,,0.00,WeatherDisplay:10.37,2013-08-31 06:37:00,
2013-08-31 02:42:00,70.7,67.3,29.68,SW,225,2.7,2.7,89,0.00,CLR,,0.00,WeatherDisplay:10.37,2013-08-31 06:42:00,
2013-08-31 02:47:00,70.7,67.3,29.68,WSW,248,3.7,3.7,89,0.00,CLR,,0.00,WeatherDisplay:10.37,2013-08-31 06:47:00,
2013-08-31 02:52:00,70.7,67.3,29.68,SW,225,3.5,3.5,89,0.00,CLR,,0.00,WeatherDisplay:10.37,2013-08-31 06:52:00,
2013-08-31 02:57:00,70.7,67.3,29.68,SW,225,2.7,2.7,89,0.00,CLR,,0.00,WeatherDisplay:10.37,2013-08-31 06:57:00,
2013-08-31 03:02:00,70.5,67.1,29.68,SW,225,3.5,3.5,89,0.00,CLR,,0.00,WeatherDisplay:10.37,2013-08-31 07:02:00,
2013-08-31 03:07:00,70.5,67.1,29.68,SSW,202,4.6,4.6,89,0.00,CLR,,0.00,WeatherDisplay:10.37,2013-08-31 07:07:00,
2013-08-31 03:12:00,70.5,67.1,29.68,SSW,202,4.6,4.6,89,0.00,CLR,,0.00,WeatherDisplay:10.37,2013-08-31 07:12:00,
2013-08-31 03:17:00,70.5,67.1,29.68,SW,225,4.7,4.7,89,0.00,CLR,,0.00,WeatherDisplay:10.37,2013-08-31 07:17:00,
2013-08-31 03:22:00,70.5,67.1,29.67,SW,225,3.5,3.5,89,0.00,CLR,,0.00,WeatherDisplay:10.37,2013-08-31 07:22:00,
2013-08-31 03:27:00,70.5,67.1,29.67,SW,225,5.8,5.8,89,0.00,CLR,,0.00,WeatherDisplay:10.37,2013-08-31 07:27:00,
2013-08-31 03:32:00,70.5,67.1,29.67,SSE,158,3.7,3.7,89,0.00,CLR,,0.00,WeatherDisplay:10.37,2013-08-31 07:32:00,
2013-08-31 03:37:00,70.5,67.1,29.67,SSW,202,3.5,3.5,89,0.00,CLR,,0.00,WeatherDisplay:10.37,2013-08-31 07:37:00,
2013-08-31 03:42:00,70.3,67.2,29.67,SSW,202,3.7,4.1,90,0.00,CLR,,0.00,WeatherDisplay:10.37,2013-08-31 07:42:00,
2013-08-31 03:47:00,70.3,67.2,29.68,SW,225,4.6,4.6,90,0.00,CLR,,0.00,WeatherDisplay:10.37,2013-08-31 07:47:00,
2013-08-31 03:52:00,70.3,67.2,29.68,West,270,5.3,5.3,90,0.00,CLR,,0.00,WeatherDisplay:10.37,2013-08-31 07:52:00,
2013-08-31 03:57:00,70.3,67.2,29.67,SW,225,5.8,5.8,90,0.00,CLR,,0.00,WeatherDisplay:10.37,2013-08-31 07:57:00,
2013-08-31 04:02:00,70.3,67.2,29.67,SW,225,4.6,4.6,90,0.00,CLR,,0.00,WeatherDisplay:10.37,2013-08-31 08:02:00,
2013-08-31 04:07:00,70.3,67.2,29.67,West,270,5.8,5.8,90,0.00,CLR,,0.00,WeatherDisplay:10.37,2013-08-31 08:07:00,
2013-08-31 04:12:00,70.3,67.2,29.67,SW,225,4.6,4.6,90,0.00,CLR,,0.00,WeatherDisplay:10.37,2013-08-31 08:12:00,
2013-08-31 04:17:00,70.3,67.2,29.67,SSW,202,3.7,3.7,90,0.00,CLR,,0.00,WeatherDisplay:10.37,2013-08-31 08:17:00,
2013-08-31 04:22:00,70.3,67.2,29.67,SW,225,3.5,3.5,90,0.00,CLR,,0.00,WeatherDisplay:10.37,2013-08-31 08:22:00,
2013-08-31 04:27:00,70.3,67.2,29.67,WSW,248,4.2,4.2,90,0.00,CLR,,0.00,WeatherDisplay:10.37,2013-08-31 08:27:00,
2013-08-31 04:32:00,70.3,67.2,29.67,SW,225,3.7,3.7,90,0.00,CLR,,0.00,WeatherDisplay:10.37,2013-08-31 08:32:00,
2013-08-31 04:37:00,70.3,67.2,29.67,WSW,248,4.6,4.6,90,0.00,CLR,,0.00,WeatherDisplay:10.37,2013-08-31 08:37:00,
2013-08-31 04:42:00,70.3,67.2,29.67,SW,225,3.5,3.5,90,0.00,CLR,,0.00,WeatherDisplay:10.37,2013-08-31 08:42:00,
2013-08-31 04:47:00,70.2,67.1,29.68,SSW,202,3.5,3.5,90,0.00,CLR,,0.00,WeatherDisplay:10.37,2013-08-31 08:47:00,
2013-08-31 04:52:00,70.2,67.1,29.68,WSW,248,3.7,3.7,90,0.00,CLR,,0.00,WeatherDisplay:10.37,2013-08-31 08:52:00,
2013-08-31 04:57:00,70.2,67.1,29.68,SW,225,3.5,3.5,90,0.00,CLR,,0.00,WeatherDisplay:10.37,2013-08-31 08:57:00,
2013-08-31 05:02:00,70.0,66.9,29.67,South,180,3.5,3.5,90,0.00,CLR,,0.00,WeatherDisplay:10.37,2013-08-31 09:02:00,
2013-08-31 05:07:00,70.0,66.9,29.67,SW,225,2.3,2.3,90,0.00,CLR,,0.00,WeatherDisplay:10.37,2013-08-31 09:07:00,
2013-08-31 05:12:00,69.8,66.7,29.67,WSW,248,3.5,3.5,90,0.00,CLR,,0.00,WeatherDisplay:10.37,2013-08-31 09:12:00,
2013-08-31 05:17:00,69.8,66.7,29.67,West,270,4.6,4.6,90,0.00,CLR,,0.00,WeatherDisplay:10.37,2013-08-31 09:17:00,
2013-08-31 05:22:00,69.8,66.7,29.67,SW,225,3.5,3.5,90,0.00,CLR,,0.00,WeatherDisplay:10.37,2013-08-31 09:22:00,
2013-08-31 05:27:00,69.8,66.7,29.67,SW,225,2.3,2.3,90,0.00,CLR,,0.00,WeatherDisplay:10.37,2013-08-31 09:27:00,
2013-08-31 05:32:00,69.8,66.7,29.67,SW,225,3.5,3.5,90,0.00,CLR,,0.00,WeatherDisplay:10.37,2013-08-31 09:32:00,
2013-08-31 05:37:00,69.6,66.5,29.67,SW,225,2.3,2.4,90,0.00,CLR,,0.00,WeatherDisplay:10.37,2013-08-31 09:37:00,
2013-08-31 05:42:00,69.6,66.5,29.67,SSE,158,2.3,2.3,90,0.00,CLR,,0.00,WeatherDisplay:10.37,2013-08-31 09:42:00,
2013-08-31 05:47:00,69.6,66.5,29.67,WSW,248,1.7,1.7,90,0.00,CLR,,0.00,WeatherDisplay:10.37,2013-08-31 09:47:00,
2013-08-31 05:52:00,69.6,66.5,29.67,WSW,248,2.7,2.8,90,0.00,CLR,,0.00,WeatherDisplay:10.37,2013-08-31 09:52:00,
2013-08-31 05:57:00,69.6,66.5,29.67,SW,225,3.5,3.5,90,0.00,CLR,,0.00,WeatherDisplay:10.37,2013-08-31 09:57:00,
2013-08-31 06:02:00,69.4,66.3,29.68,SW,225,3.5,3.5,90,0.00,CLR,,0.00,WeatherDisplay:10.37,2013-08-31 10:02:00,
2013-08-31 06:07:00,69.4,66.3,29.68,North,360,2.3,2.3,90,0.00,CLR,,0.00,WeatherDisplay:10.37,2013-08-31 10:07:00,
2013-08-31 06:12:00,69.4,66.3,29.67,South,180,3.5,3.5,90,0.00,CLR,,0.00,WeatherDisplay:10.37,2013-08-31 10:12:00,
2013-08-31 06:17:00,69.4,66.3,29.67,WSW,248,2.3,2.3,90,0.00,CLR,,0.00,WeatherDisplay:10.37,2013-08-31 10:17:00,
2013-08-31 06:22:00,69.4,66.3,29.68,SSW,202,2.7,2.7,90,0.00,CLR,,0.00,WeatherDisplay:10.37,2013-08-31 10:22:00,
2013-08-31 06:27:00,69.4,66.3,29.68,WNW,292,3.5,3.5,90,0.00,CLR,,0.00,WeatherDisplay:10.37,2013-08-31 10:27:00,
2013-08-31 06:32:00,69.4,66.3,29.68,West,270,5.8,5.8,90,0.00,CLR,,0.00,WeatherDisplay:10.37,2013-08-31 10:32:00,
2013-08-31 06:37:00,69.4,66.3,29.67,SW,225,4.6,4.6,90,0.00,CLR,,0.00,WeatherDisplay:10.37,2013-08-31 10:37:00,
2013-08-31 06:42:00,69.4,66.3,29.67,WNW,292,4.6,4.6,90,0.00,CLR,,0.00,WeatherDisplay:10.37,2013-08-31 10:42:00,
2013-08-31 06:47:00,69.4,66.3,29.68,WSW,248,4.7,4.7,90,0.00,CLR,,0.00,WeatherDisplay:10.37,2013-08-31 10:47:00,
2013-08-31 06:52:00,69.4,66.3,29.68,SSW,202,4.6,4.6,90,0.00,CLR,,0.00,WeatherDisplay:10.37,2013-08-31 10:52:00,
2013-08-31 06:57:00,69.4,66.3,29.68,WSW,248,5.8,5.8,90,0.00,CLR,,0.00,WeatherDisplay:10.37,2013-08-31 10:57:00,
2013-08-31 07:02:00,69.4,66.3,29.68,SW,225,5.8,5.8,90,0.00,FEW,,0.00,WeatherDisplay:10.37,2013-08-31 11:02:00,
2013-08-31 07:07:00,69.4,66.3,29.68,West,270,4.6,4.6,90,0.00,FEW,,0.00,WeatherDisplay:10.37,2013-08-31 11:07:00,
2013-08-31 07:12:00,69.6,66.5,29.69,WSW,248,4.6,4.6,90,0.00,FEW,,0.00,WeatherDisplay:10.37,2013-08-31 11:12:00,
2013-08-31 07:17:00,69.8,66.7,29.69,West,270,4.6,4.6,90,0.00,FEW,,0.00,WeatherDisplay:10.37,2013-08-31 11:17:00,
2013-08-31 07:22:00,70.0,66.9,29.69,SW,225,5.8,5.8,90,0.00,FEW,,0.00,WeatherDisplay:10.37,2013-08-31 11:22:00,
2013-08-31 07:27:00,70.0,66.6,29.69,West,270,5.8,5.8,89,0.00,FEW,,0.00,WeatherDisplay:10.37,2013-08-31 11:27:00,
2013-08-31 07:32:00,70.3,66.9,29.69,WSW,248,3.5,3.5,89,0.00,FEW,,0.00,WeatherDisplay:10.37,2013-08-31 11:32:00,
2013-08-31 07:37:00,70.3,66.9,29.69,SW,225,4.7,4.7,89,0.00,FEW,,0.00,WeatherDisplay:10.37,2013-08-31 11:37:00,
2013-08-31 07:42:00,70.5,67.1,29.69,SW,225,4.6,4.6,89,0.00,FEW,,0.00,WeatherDisplay:10.37,2013-08-31 11:42:00,
2013-08-31 07:47:00,70.5,66.8,29.69,SW,225,4.7,4.7,88,0.00,FEW,,0.00,WeatherDisplay:10.37,2013-08-31 11:47:00,
2013-08-31 07:52:00,70.5,66.8,29.69,SW,225,5.8,5.8,88,0.00,FEW,,0.00,WeatherDisplay:10.37,2013-08-31 11:52:00,
2013-08-31 07:57:00,70.5,66.8,29.69,SW,225,4.6,4.6,88,0.00,FEW,,0.00,WeatherDisplay:10.37,2013-08-31 11:57:00,
2013-08-31 08:02:00,70.7,67.0,29.68,SSW,202,3.7,3.7,88,0.00,FEW,,0.00,WeatherDisplay:10.37,2013-08-31 12:02:00,
2013-08-31 08:07:00,71.1,67.4,29.68,SW,225,2.3,2.3,88,0.00,FEW,,0.00,WeatherDisplay:10.37,2013-08-31 12:07:00,
2013-08-31 08:12:00,71.2,67.1,29.68,West,270,5.8,5.8,87,0.00,FEW,,0.00,WeatherDisplay:10.37,2013-08-31 12:12:00,
2013-08-31 08:17:00,72.0,67.6,29.68,SSW,202,3.5,3.5,86,0.00,FEW,,0.00,WeatherDisplay:10.37,2013-08-31 12:17:00,
2013-08-31 08:22:00,72.7,67.9,29.68,WNW,292,4.6,4.6,85,0.00,FEW,,0.00,WeatherDisplay:10.37,2013-08-31 12:22:00,
2013-08-31 08:27:00,73.4,68.3,29.68,SW,225,3.5,3.5,84,0.00,FEW,,0.00,WeatherDisplay:10.37,2013-08-31 12:27:00,
2013-08-31 08:32:00,73.6,68.5,29.68,SSW,202,3.5,3.5,84,0.00,SCT,,0.00,WeatherDisplay:10.37,2013-08-31 12:32:00,
2013-08-31 08:37:00,73.4,68.3,29.68,ENE,68,4.6,4.6,84,0.00,SCT,,0.00,WeatherDisplay:10.37,2013-08-31 12:37:00,
2013-08-31 08:42:00,73.6,68.5,29.68,ENE,68,2.3,2.3,84,0.00,SCT,,0.00,WeatherDisplay:10.37,2013-08-31 12:42:00,
2013-08-31 08:47:00,73.8,68.7,29.68,WSW,248,1.1,1.1,84,0.00,SCT,,0.00,WeatherDisplay:10.37,2013-08-31 12:47:00,
2013-08-31 08:52:00,73.6,68.5,29.68,West,270,1.7,1.7,84,0.00,SCT,,0.00,WeatherDisplay:10.37,2013-08-31 12:52:00,
2013-08-31 08:57:00,73.4,68.3,29.68,SW,225,4.6,4.6,84,0.00,SCT,,0.00,WeatherDisplay:10.37,2013-08-31 12:57:00,
2013-08-31 09:02:00,73.2,68.4,29.68,SSW,202,3.5,3.5,85,0.00,SCT,,0.00,WeatherDisplay:10.37,2013-08-31 13:02:00,
2013-08-31 09:07:00,73.2,68.4,29.68,WSW,248,5.8,5.8,85,0.00,SCT,,0.00,WeatherDisplay:10.37,2013-08-31 13:07:00,
2013-08-31 09:12:00,73.2,68.4,29.68,West,270,2.3,2.3,85,0.00,SCT,,0.00,WeatherDisplay:10.37,2013-08-31 13:12:00,
2013-08-31 09:17:00,73.0,68.2,29.68,SW,225,4.6,4.6,85,0.00,SCT,,0.00,WeatherDisplay:10.37,2013-08-31 13:17:00,
2013-08-31 09:22:00,73.0,68.2,29.69,West,270,4.6,4.6,85,0.00,SCT,,0.00,WeatherDisplay:10.37,2013-08-31 13:22:00,
2013-08-31 09:27:00,73.0,68.2,29.69,West,270,2.7,2.7,85,0.00,SCT,,0.00,WeatherDisplay:10.37,2013-08-31 13:27:00,
2013-08-31 09:32:00,73.2,68.8,29.69,WSW,248,3.5,3.5,86,0.00,SCT,,0.00,WeatherDisplay:10.37,2013-08-31 13:32:00,
2013-08-31 09:37:00,73.6,69.2,29.69,SW,225,4.6,4.6,86,0.00,SCT,,0.00,WeatherDisplay:10.37,2013-08-31 13:37:00,
2013-08-31 09:42:00,74.3,69.5,29.69,West,270,3.5,3.5,85,0.00,SCT,,0.00,WeatherDisplay:10.37,2013-08-31 13:42:00,
2013-08-31 09:47:00,74.8,70.0,29.69,South,180,5.3,5.3,85,0.00,SCT,,0.00,WeatherDisplay:10.37,2013-08-31 13:47:00,
2013-08-31 09:52:00,75.0,69.8,29.69,SW,225,4.2,4.2,84,0.00,SCT,,0.00,WeatherDisplay:10.37,2013-08-31 13:52:00,
2013-08-31 09:57:00,74.3,69.1,29.69,WSW,248,6.9,6.9,84,0.00,SCT,,0.00,WeatherDisplay:10.37,2013-08-31 13:57:00,
2013-08-31 10:02:00,74.5,69.3,29.70,SW,225,3.5,3.5,84,0.00,FEW,,0.00,WeatherDisplay:10.37,2013-08-31 14:02:00,
2013-08-31 10:07:00,74.7,69.5,29.70,SW,225,5.8,5.8,84,0.00,FEW,,0.00,WeatherDisplay:10.37,2013-08-31 14:07:00,
2013-08-31 10:12:00,74.7,69.5,29.70,WSW,248,5.8,5.8,84,0.00,FEW,,0.00,WeatherDisplay:10.37,2013-08-31 14:12:00,
2013-08-31 10:17:00,74.7,69.5,29.70,SW,225,5.8,5.8,84,0.00,FEW,,0.00,WeatherDisplay:10.37,2013-08-31 14:17:00,
2013-08-31 10:22:00,74.7,69.5,29.70,SW,225,6.3,6.3,84,0.00,FEW,,0.00,WeatherDisplay:10.37,2013-08-31 14:22:00,
2013-08-31 10:27:00,74.7,69.5,29.70,SW,225,4.6,4.6,84,0.00,FEW,,0.00,WeatherDisplay:10.37,2013-08-31 14:27:00,
2013-08-31 10:32:00,75.4,69.9,29.70,SW,225,4.6,4.6,83,0.00,FEW,,0.00,WeatherDisplay:10.37,2013-08-31 14:32:00,
2013-08-31 10:37:00,75.9,70.4,29.70,SW,225,5.8,5.8,83,0.00,FEW,,0.00,WeatherDisplay:10.37,2013-08-31 14:37:00,
2013-08-31 10:42:00,76.5,70.6,29.70,SW,225,4.7,4.7,82,0.00,FEW,,0.00,WeatherDisplay:10.37,2013-08-31 14:42:00,
2013-08-31 10:47:00,76.8,70.9,29.70,SW,225,5.8,5.8,82,0.00,FEW,,0.00,WeatherDisplay:10.37,2013-08-31 14:47:00,
2013-08-31 10:52:00,77.7,71.4,29.70,WSW,248,4.7,4.7,81,0.00,FEW,,0.00,WeatherDisplay:10.37,2013-08-31 14:52:00,
2013-08-31 10:57:00,77.5,70.8,29.70,SW,225,5.8,5.8,80,0.00,FEW,,0.00,WeatherDisplay:10.37,2013-08-31 14:57:00,
2013-08-31 11:02:00,77.0,70.7,29.71,South,180,5.8,5.8,81,0.00,BKN,,0.00,WeatherDisplay:10.37,2013-08-31 15:02:00,
2013-08-31 11:07:00,78.1,71.4,29.71,SW,225,4.2,4.2,80,0.00,BKN,,0.00,WeatherDisplay:10.37,2013-08-31 15:07:00,
2013-08-31 11:12:00,78.3,71.6,29.71,SSW,202,6.3,6.3,80,0.00,BKN,,0.00,WeatherDisplay:10.37,2013-08-31 15:12:00,
2013-08-31 11:17:00,78.1,71.4,29.71,SSW,202,5.8,5.8,80,0.00,BKN,,0.00,WeatherDisplay:10.37,2013-08-31 15:17:00,
2013-08-31 11:22:00,79.0,71.9,29.71,WSW,248,5.8,5.8,79,0.00,BKN,,0.00,WeatherDisplay:10.37,2013-08-31 15:22:00,
2013-08-31 11:27:00,79.2,72.1,29.71,SW,225,5.8,5.8,79,0.00,BKN,,0.00,WeatherDisplay:10.37,2013-08-31 15:27:00,
2013-08-31 11:32:00,78.8,71.7,29.71,WSW,248,6.9,6.9,79,0.00,BKN,,0.00,WeatherDisplay:10.37,2013-08-31 15:32:00,
2013-08-31 11:37:00,79.0,72.3,29.72,SW,225,4.7,4.7,80,0.00,BKN,,0.00,WeatherDisplay:10.37,2013-08-31 15:37:00,
2013-08-31 11:42:00,79.0,71.6,29.72,SW,225,8.1,8.1,78,0.00,BKN,,0.00,WeatherDisplay:10.37,2013-08-31 15:42:00,
2013-08-31 11:47:00,79.2,71.7,29.71,SSW,202,5.8,5.8,78,0.00,BKN,,0.00,WeatherDisplay:10.37,2013-08-31 15:47:00,
2013-08-31 11:52:00,81.1,72.8,29.71,SW,225,5.3,5.3,76,0.00,BKN,,0.00,WeatherDisplay:10.37,2013-08-31 15:52:00,
2013-08-31 11:57:00,81.0,72.7,29.71,SW,225,5.8,5.8,76,0.00,BKN,,0.00,WeatherDisplay:10.37,2013-08-31 15:57:00,
2013-08-31 12:02:00,80.1,72.2,28.86,WSW,248,8.1,8.1,77,0.00,CLR,,0.00,WeatherDisplay:10.37,2013-08-31 16:02:00,
2013-08-31 12:07:00,80.1,72.2,29.70,SSW,202,6.9,6.9,77,0.00,CLR,,0.00,WeatherDisplay:10.37,2013-08-31 16:07:00,
2013-08-31 12:12:00,80.4,72.1,29.70,SW,225,6.9,6.9,76,0.00,CLR,,0.00,WeatherDisplay:10.37,2013-08-31 16:12:00,
2013-08-31 12:17:00,81.3,71.8,29.70,SW,225,6.3,6.3,73,0.00,CLR,,0.00,WeatherDisplay:10.37,2013-08-31 16:17:00,
2013-08-31 12:22:00,80.8,70.5,29.70,SW,225,5.8,5.8,71,0.00,CLR,,0.00,WeatherDisplay:10.37,2013-08-31 16:22:00,
2013-08-31 12:27:00,82.0,70.4,29.70,SW,225,6.9,6.9,68,0.00,CLR,,0.00,WeatherDisplay:10.37,2013-08-31 16:27:00,
2013-08-31 12:32:00,83.1,70.1,29.70,SW,225,6.9,6.9,65,0.00,CLR,,0.00,WeatherDisplay:10.37,2013-08-31 16:32:00,
2013-08-31 12:37:00,83.3,69.8,29.69,SW,225,8.1,8.1,64,0.00,CLR,,0.00,WeatherDisplay:10.37,2013-08-31 16:37:00,
2013-08-31 12:42:00,82.6,68.7,29.69,SW,225,8.1,8.1,63,0.00,CLR,,0.00,WeatherDisplay:10.37,2013-08-31 16:42:00,
2013-08-31 12:47:00,82.6,68.7,29.69,SW,225,4.7,4.7,63,0.00,CLR,,0.00,WeatherDisplay:10.37,2013-08-31 16:47:00,
2013-08-31 12:52:00,82.2,68.3,29.69,SW,225,4.7,5.0,63,0.00,CLR,,0.00,WeatherDisplay:10.37,2013-08-31 16:52:00,
2013-08-31 12:57:00,82.8,69.4,29.70,West,270,4.6,4.6,64,0.00,CLR,,0.00,WeatherDisplay:10.37,2013-08-31 16:57:00,
2013-08-31 13:02:00,83.8,69.4,29.70,SW,225,8.1,8.1,62,0.00,CLR,,0.00,WeatherDisplay:10.37,2013-08-31 17:02:00,
2013-08-31 13:07:00,85.3,69.8,29.70,SSW,202,5.8,5.8,60,0.00,CLR,,0.00,WeatherDisplay:10.37,2013-08-31 17:07:00,
2013-08-31 13:12:00,85.6,69.6,29.69,SW,225,10.4,10.4,59,0.00,CLR,,0.00,WeatherDisplay:10.37,2013-08-31 17:12:00,
2013-08-31 13:17:00,85.6,69.6,29.69,SW,225,8.1,8.1,59,0.00,CLR,,0.00,WeatherDisplay:10.37,2013-08-31 17:17:00,
2013-08-31 13:22:00,84.6,68.7,29.69,SSW,202,10.4,10.4,59,0.00,CLR,,0.00,WeatherDisplay:10.37,2013-08-31 17:22:00,
2013-08-31 13:27:00,86.2,70.7,29.69,WSW,248,8.1,8.1,60,0.00,CLR,,0.00,WeatherDisplay:10.37,2013-08-31 17:27:00,
2013-08-31 13:32:00,86.2,70.7,29.69,SW,225,9.2,9.2,60,0.00,CLR,,0.00,WeatherDisplay:10.37,2013-08-31 17:32:00,
2013-08-31 13:37:00,85.3,69.8,29.69,WSW,248,6.9,6.9,60,0.00,CLR,,0.00,WeatherDisplay:10.37,2013-08-31 17:37:00,
2013-08-31 13:42:00,86.7,70.7,29.69,West,270,9.2,9.2,59,0.00,CLR,,0.00,WeatherDisplay:10.37,2013-08-31 17:42:00,
2013-08-31 13:47:00,86.0,70.5,29.68,West,270,3.5,3.5,60,0.00,CLR,,0.00,WeatherDisplay:10.37,2013-08-31 17:47:00,
2013-08-31 13:52:00,84.7,69.3,29.68,SSW,202,9.2,9.2,60,0.00,CLR,,0.00,WeatherDisplay:10.37,2013-08-31 17:52:00,
2013-08-31 13:57:00,85.8,69.3,29.68,WSW,248,6.9,6.9,58,0.00,CLR,,0.00,WeatherDisplay:10.37,2013-08-31 17:57:00,
2013-08-31 14:02:00,86.5,70.5,29.68,SW,225,9.2,9.2,59,0.00,FEW,,0.00,WeatherDisplay:10.37,2013-08-31 18:02:00,
2013-08-31 14:07:00,86.4,70.4,29.68,WSW,248,8.8,8.8,59,0.00,FEW,,0.00,WeatherDisplay:10.37,2013-08-31 18:07:00,
2013-08-31 14:12:00,86.0,70.5,29.67,SW,225,6.9,6.9,60,0.00,FEW,,0.00,WeatherDisplay:10.37,2013-08-31 18:12:00,
2013-08-31 14:17:00,85.8,70.8,29.67,SW,225,8.1,8.1,61,0.00,FEW,,0.00,WeatherDisplay:10.37,2013-08-31 18:17:00,
2013-08-31 14:22:00,86.4,70.4,29.67,SW,225,6.8,6.8,59,0.00,FEW,,0.00,WeatherDisplay:10.37,2013-08-31 18:22:00,
2013-08-31 14:27:00,86.7,71.2,29.67,SW,225,6.9,6.9,60,0.00,FEW,,0.00,WeatherDisplay:10.37,2013-08-31 18:27:00,
2013-08-31 14:32:00,86.0,70.0,29.67,SW,225,7.8,7.8,59,0.00,FEW,,0.00,WeatherDisplay:10.37,2013-08-31 18:32:00,
2013-08-31 14:37:00,86.7,71.2,29.67,WSW,248,6.9,6.9,60,0.00,FEW,,0.00,WeatherDisplay:10.37,2013-08-31 18:37:00,
2013-08-31 14:42:00,86.0,71.5,29.67,SW,225,6.9,6.9,62,0.00,FEW,,0.00,WeatherDisplay:10.37,2013-08-31 18:42:00,
2013-08-31 14:47:00,85.5,70.5,29.67,SW,225,6.9,6.9,61,0.00,FEW,,0.00,WeatherDisplay:10.37,2013-08-31 18:47:00,
2013-08-31 14:52:00,85.8,70.3,29.67,WSW,248,9.9,9.9,60,0.00,FEW,,0.00,WeatherDisplay:10.37,2013-08-31 18:52:00,
2013-08-31 14:57:00,86.7,71.2,29.67,South,180,10.4,10.4,60,0.00,FEW,,0.00,WeatherDisplay:10.37,2013-08-31 18:57:00,
2013-08-31 15:02:00,87.6,71.5,29.66,SW,225,9.2,9.2,59,0.00,SCT,,0.00,WeatherDisplay:10.37,2013-08-31 19:02:00,
2013-08-31 15:07:00,85.6,70.6,29.66,SW,225,9.2,9.2,61,0.00,SCT,,0.00,WeatherDisplay:10.37,2013-08-31 19:07:00,
2013-08-31 15:12:00,86.4,71.4,29.66,WSW,248,6.9,6.9,61,0.00,SCT,,0.00,WeatherDisplay:10.37,2013-08-31 19:12:00,
2013-08-31 15:17:00,87.8,71.7,29.66,SSW,202,5.8,5.8,59,0.00,SCT,,0.00,WeatherDisplay:10.37,2013-08-31 19:17:00,
2013-08-31 15:22:00,86.9,70.8,29.66,SSW,202,9.2,9.2,59,0.00,SCT,,0.00,WeatherDisplay:10.37,2013-08-31 19:22:00,
2013-08-31 15:27:00,88.3,72.2,29.65,SSW,202,5.8,5.8,59,0.00,SCT,,0.00,WeatherDisplay:10.37,2013-08-31 19:27:00,
2013-08-31 15:32:00,89.1,72.4,29.65,SSW,202,7.3,7.3,58,0.00,SCT,,0.00,WeatherDisplay:10.37,2013-08-31 19:32:00,
2013-08-31 15:37:00,88.3,72.2,29.66,SW,225,6.9,6.9,59,0.00,SCT,,0.00,WeatherDisplay:10.37,2013-08-31 19:37:00,
2013-08-31 15:42:00,87.6,71.0,29.66,South,180,5.8,5.8,58,0.00,SCT,,0.00,WeatherDisplay:10.37,2013-08-31 19:42:00,
2013-08-31 15:47:00,88.0,71.9,29.65,South,180,8.1,8.1,59,0.00,SCT,,0.00,WeatherDisplay:10.37,2013-08-31 19:47:00,
2013-08-31 15:52:00,88.3,72.2,29.65,WSW,248,4.2,4.2,59,0.00,SCT,,0.00,WeatherDisplay:10.37,2013-08-31 19:52:00,
2013-08-31 15:57:00,87.1,71.5,29.65,SW,225,6.9,6.9,60,0.00,SCT,,0.00,WeatherDisplay:10.37,2013-08-31 19:57:00,
2013-08-31 16:02:00,88.2,72.1,29.65,SW,225,4.2,4.2,59,0.00,BKN,,0.00,WeatherDisplay:10.37,2013-08-31 20:02:00,
2013-08-31 16:07:00,87.1,71.5,29.65,WSW,248,4.6,4.8,60,0.00,BKN,,0.00,WeatherDisplay:10.37,2013-08-31 20:07:00,
2013-08-31 16:12:00,89.2,72.5,29.65,South,180,5.8,5.8,58,0.00,BKN,,0.00,WeatherDisplay:10.37,2013-08-31 20:12:00,
2013-08-31 16:17:00,88.9,72.2,29.65,WSW,248,4.6,4.6,58,0.00,BKN,,0.00,WeatherDisplay:10.37,2013-08-31 20:17:00,
2013-08-31 16:22:00,87.8,71.7,29.64,SW,225,6.8,6.8,59,0.00,BKN,,0.00,WeatherDisplay:10.37,2013-08-31 20:22:00,
2013-08-31 16:27:00,87.4,71.3,29.64,SW,225,5.8,5.8,59,0.00,BKN,,0.00,WeatherDisplay:10.37,2013-08-31 20:27:00,
2013-08-31 16:32:00,88.9,71.7,29.64,West,270,5.8,5.8,57,0.00,BKN,,0.00,WeatherDisplay:10.37,2013-08-31 20:32:00,
2013-08-31 16:37:00,90.9,72.5,29.64,SW,225,5.8,5.8,55,0.00,BKN,,0.00,WeatherDisplay:10.37,2013-08-31 20:37:00,
2013-08-31 16:42:00,90.0,72.7,29.64,SW,225,3.7,3.7,57,0.00,BKN,,0.00,WeatherDisplay:10.37,2013-08-31 20:42:00,
2013-08-31 16:47:00,87.6,72.5,29.65,WSW,248,4.2,4.2,61,0.00,BKN,,0.00,WeatherDisplay:10.37,2013-08-31 20:47:00,
2013-08-31 16:52:00,86.7,71.6,29.65,WSW,248,8.1,8.1,61,0.00,BKN,,0.00,WeatherDisplay:10.37,2013-08-31 20:52:00,
2013-08-31 16:57:00,90.3,73.0,29.65,WSW,248,4.7,4.7,57,0.00,BKN,,0.00,WeatherDisplay:10.37,2013-08-31 20:57:00,
2013-08-31 17:02:00,88.2,72.6,29.65,SW,225,8.3,8.3,60,0.00,BKN,,0.00,WeatherDisplay:10.37,2013-08-31 21:02:00,
2013-08-31 17:07:00,89.1,72.9,29.65,SSW,202,6.9,6.9,59,0.00,BKN,,0.00,WeatherDisplay:10.37,2013-08-31 21:07:00,
2013-08-31 17:12:00,90.1,72.8,29.64,SSW,202,5.8,5.8,57,0.00,BKN,,0.00,WeatherDisplay:10.37,2013-08-31 21:12:00,
2013-08-31 17:17:00,89.2,72.5,29.64,SE,135,5.8,5.8,58,0.00,BKN,,0.00,WeatherDisplay:10.37,2013-08-31 21:17:00,
2013-08-31 17:22:00,88.9,72.7,29.64,NW,315,5.8,5.8,59,0.00,BKN,,0.00,WeatherDisplay:10.37,2013-08-31 21:22:00,
2013-08-31 17:27:00,89.1,72.4,29.64,SW,225,3.5,3.5,58,0.00,BKN,,0.00,WeatherDisplay:10.37,2013-08-31 21:27:00,
2013-08-31 17:32:00,88.5,71.8,29.64,West,270,4.2,4.3,58,0.00,BKN,,0.00,WeatherDisplay:10.37,2013-08-31 21:32:00,
2013-08-31 17:37:00,88.7,72.5,29.64,SW,225,4.6,4.6,59,0.00,BKN,,0.00,WeatherDisplay:10.37,2013-08-31 21:37:00,
2013-08-31 17:42:00,89.6,72.3,29.64,SW,225,4.6,4.6,57,0.00,BKN,,0.00,WeatherDisplay:10.37,2013-08-31 21:42:00,
2013-08-31 17:47:00,89.4,72.2,29.64,WSW,248,4.6,4.6,57,0.00,BKN,,0.00,WeatherDisplay:10.37,2013-08-31 21:47:00,
2013-08-31 17:52:00,89.6,72.3,29.64,West,270,5.8,5.8,57,0.00,BKN,,0.00,WeatherDisplay:10.37,2013-08-31 21:52:00,
2013-08-31 17:57:00,88.5,72.3,29.64,West,270,4.6,4.6,59,0.00,BKN,,0.00,WeatherDisplay:10.37,2013-08-31 21:57:00,
2013-08-31 18:02:00,88.0,72.4,29.64,SW,225,5.8,5.8,60,0.00,FEW,,0.00,WeatherDisplay:10.37,2013-08-31 22:02:00,
2013-08-31 18:07:00,87.6,72.0,29.64,SW,225,3.7,3.7,60,0.00,FEW,,0.00,WeatherDisplay:10.37,2013-08-31 22:07:00,
2013-08-31 18:12:00,86.7,72.1,29.64,SW,225,3.7,3.7,62,0.00,FEW,,0.00,WeatherDisplay:10.37,2013-08-31 22:12:00,
2013-08-31 18:17:00,86.4,72.8,29.64,SSW,202,3.5,3.5,64,0.00,FEW,,0.00,WeatherDisplay:10.37,2013-08-31 22:17:00,
2013-08-31 18:22:00,85.3,72.6,29.63,SSW,202,3.5,3.5,66,0.00,FEW,,0.00,WeatherDisplay:10.37,2013-08-31 22:22:00,
2013-08-31 18:27:00,84.9,72.7,29.63,SW,225,3.7,3.7,67,0.00,FEW,,0.00,WeatherDisplay:10.37,2013-08-31 22:27:00,
2013-08-31 18:32:00,84.9,72.3,29.63,West,270,3.5,3.5,66,0.00,FEW,,0.00,WeatherDisplay:10.37,2013-08-31 22:32:00,
2013-08-31 18:37:00,85.8,72.7,29.63,ESE,112,4.6,4.6,65,0.00,FEW,,0.00,WeatherDisplay:10.37,2013-08-31 22:37:00,
2013-08-31 18:42:00,86.0,72.9,29.63,West,270,5.8,5.8,65,0.00,FEW,,0.00,WeatherDisplay:10.37,2013-08-31 22:42:00,
2013-08-31 18:47:00,86.2,73.5,29.63,WSW,248,3.5,3.8,66,0.00,FEW,,0.00,WeatherDisplay:10.37,2013-08-31 22:47:00,
2013-08-31 18:52:00,86.0,73.3,29.63,WSW,248,3.5,3.5,66,0.00,FEW,,0.00,WeatherDisplay:10.37,2013-08-31 22:52:00,
2013-08-31 18:57:00,84.9,72.7,29.63,WSW,248,2.7,2.7,67,0.00,FEW,,0.00,WeatherDisplay:10.37,2013-08-31 22:57:00,
2013-08-31 19:02:00,84.0,72.3,29.62,WSW,248,3.7,4.0,68,0.00,FEW,,0.00,WeatherDisplay:10.37,2013-08-31 23:02:00,
2013-08-31 19:07:00,83.3,72.5,29.62,SW,225,4.6,4.6,70,0.00,FEW,,0.00,WeatherDisplay:10.37,2013-08-31 23:07:00,
2013-08-31 19:12:00,83.3,72.5,29.63,SSW,202,3.5,3.5,70,0.00,FEW,,0.00,WeatherDisplay:10.37,2013-08-31 23:12:00,
2013-08-31 19:17:00,82.8,72.8,29.63,WSW,248,3.5,3.5,72,0.00,FEW,,0.00,WeatherDisplay:10.37,2013-08-31 23:17:00,
2013-08-31 19:22:00,82.0,72.5,29.64,SSW,202,3.5,3.5,73,0.00,FEW,,0.00,WeatherDisplay:10.37,2013-08-31 23:22:00,
2013-08-31 19:27:00,81.5,72.4,29.64,SW,225,3.5,3.5,74,0.00,FEW,,0.00,WeatherDisplay:10.37,2013-08-31 23:27:00,
2013-08-31 19:32:00,81.0,72.3,29.64,SW,225,4.6,4.6,75,0.00,FEW,,0.00,WeatherDisplay:10.37,2013-08-31 23:32:00,
2013-08-31 19:37:00,80.4,71.7,29.64,WSW,248,4.6,4.6,75,0.00,FEW,,0.00,WeatherDisplay:10.37,2013-08-31 23:37:00,
2013-08-31 19:42:00,79.9,72.0,29.64,West,270,4.6,4.6,77,0.00,FEW,,0.00,WeatherDisplay:10.37,2013-08-31 23:42:00,
2013-08-31 19:47:00,79.3,71.5,29.64,SW,225,4.6,4.6,77,0.00,FEW,,0.00,WeatherDisplay:10.37,2013-08-31 23:47:00,
2013-08-31 19:52:00,79.0,71.6,29.64,South,180,4.6,4.6,78,0.00,FEW,,0.00,WeatherDisplay:10.37,2013-08-31 23:52:00,
2013-08-31 19:57:00,78.8,71.4,29.64,SSW,202,3.7,3.7,78,0.00,FEW,,0.00,WeatherDisplay:10.37,2013-08-31 23:57:00,
2013-08-31 20:02:00,78.3,71.2,29.65,SW,225,4.6,4.6,79,0.00,FEW,,0.00,WeatherDisplay:10.37,2013-09-01 00:02:00,
2013-08-31 20:07:00,78.1,71.1,29.65,SSW,202,3.5,3.5,79,0.00,FEW,,0.00,WeatherDisplay:10.37,2013-09-01 00:07:00,
2013-08-31 20:12:00,77.7,71.0,29.65,West,270,4.6,4.6,80,0.00,FEW,,0.00,WeatherDisplay:10.37,2013-09-01 00:12:00,
2013-08-31 20:17:00,77.7,71.0,29.65,West,270,5.8,5.8,80,0.00,FEW,,0.00,WeatherDisplay:10.37,2013-09-01 00:17:00,
2013-08-31 20:22:00,77.7,71.0,29.67,West,270,4.6,4.6,80,0.00,FEW,,0.00,WeatherDisplay:10.37,2013-09-01 00:22:00,
2013-08-31 20:27:00,77.5,70.8,29.67,SSW,202,5.8,5.8,80,0.00,FEW,,0.00,WeatherDisplay:10.37,2013-09-01 00:27:00,
2013-08-31 20:32:00,77.5,70.8,29.67,WSW,248,4.6,4.6,80,0.00,FEW,,0.00,WeatherDisplay:10.37,2013-09-01 00:32:00,
2013-08-31 20:37:00,77.5,70.8,29.67,SSW,202,5.8,5.8,80,0.00,FEW,,0.00,WeatherDisplay:10.37,2013-09-01 00:37:00,
2013-08-31 20:42:00,77.5,70.8,29.67,WNW,292,5.8,5.8,80,0.00,FEW,,0.00,WeatherDisplay:10.37,2013-09-01 00:42:00,
2013-08-31 20:47:00,77.5,70.8,29.68,SW,225,4.6,4.6,80,0.00,FEW,,0.00,WeatherDisplay:10.37,2013-09-01 00:47:00,
2013-08-31 20:52:00,77.4,70.7,29.68,SW,225,4.2,4.6,80,0.00,FEW,,0.00,WeatherDisplay:10.37,2013-09-01 00:52:00,
2013-08-31 20:57:00,77.0,70.7,29.68,SW,225,5.8,5.8,81,0.00,FEW,,0.00,WeatherDisplay:10.37,2013-09-01 00:57:00,
2013-08-31 21:02:00,76.6,70.3,29.69,South,180,6.9,6.9,81,0.00,CLR,,0.00,WeatherDisplay:10.37,2013-09-01 01:02:00,
2013-08-31 21:07:00,76.5,70.2,29.69,West,270,6.9,6.9,81,0.00,CLR,,0.00,WeatherDisplay:10.37,2013-09-01 01:07:00,
2013-08-31 21:12:00,76.1,69.8,29.69,WSW,248,5.8,5.8,81,0.00,CLR,,0.00,WeatherDisplay:10.37,2013-09-01 01:12:00,
2013-08-31 21:17:00,75.9,69.6,29.69,SW,225,4.7,4.7,81,0.00,CLR,,0.00,WeatherDisplay:10.37,2013-09-01 01:17:00,
2013-08-31 21:22:00,75.7,69.5,29.69,West,270,4.7,5.3,81,0.00,CLR,,0.00,WeatherDisplay:10.37,2013-09-01 01:22:00,
2013-08-31 21:27:00,75.6,69.7,29.69,SW,225,5.8,5.8,82,0.00,CLR,,0.00,WeatherDisplay:10.37,2013-09-01 01:27:00,
2013-08-31 21:32:00,75.4,69.5,29.69,WSW,248,5.8,6.0,82,0.00,CLR,,0.00,WeatherDisplay:10.37,2013-09-01 01:32:00,
2013-08-31 21:37:00,75.2,69.3,29.68,SW,225,8.1,8.1,82,0.00,CLR,,0.00,WeatherDisplay:10.37,2013-09-01 01:37:00,
2013-08-31 21:42:00,75.0,69.1,29.68,West,270,5.8,5.8,82,0.00,CLR,,0.00,WeatherDisplay:10.37,2013-09-01 01:42:00,
2013-08-31 21:47:00,74.8,68.9,29.68,SSW,202,8.1,8.1,82,0.00,CLR,,0.00,WeatherDisplay:10.37,2013-09-01 01:47:00,
2013-08-31 21:52:00,74.7,69.2,29.68,WSW,248,5.8,5.8,83,0.00,CLR,,0.00,WeatherDisplay:10.37,2013-09-01 01:52:00,
2013-08-31 21:57:00,74.5,69.0,29.68,West,270,5.8,5.8,83,0.00,CLR,,0.00,WeatherDisplay:10.37,2013-09-01 01:57:00,
2013-08-31 22:02:00,74.5,69.0,29.68,WSW,248,4.6,4.6,83,0.00,CLR,,0.00,WeatherDisplay:10.37,2013-09-01 02:02:00,
2013-08-31 22:07:00,74.1,68.6,29.68,SW,225,4.2,4.2,83,0.00,CLR,,0.00,WeatherDisplay:10.37,2013-09-01 02:07:00,
2013-08-31 22:12:00,74.1,68.6,29.68,SW,225,4.7,4.7,83,0.00,CLR,,0.00,WeatherDisplay:10.37,2013-09-01 02:12:00,
2013-08-31 22:17:00,73.9,68.4,29.68,SW,225,5.8,5.8,83,0.00,CLR,,0.00,WeatherDisplay:10.37,2013-09-01 02:17:00,
2013-08-31 22:22:00,73.8,68.7,29.67,WSW,248,4.6,4.6,84,0.00,CLR,,0.00,WeatherDisplay:10.37,2013-09-01 02:22:00,
2013-08-31 22:27:00,73.6,68.5,29.67,SW,225,5.8,5.8,84,0.00,CLR,,0.00,WeatherDisplay:10.37,2013-09-01 02:27:00,
2013-08-31 22:32:00,73.6,68.5,29.67,NW,315,3.5,3.5,84,0.00,FEW,,0.00,WeatherDisplay:10.37,2013-09-01 02:32:00,
2013-08-31 22:37:00,73.2,68.1,29.68,West,270,3.5,3.5,84,0.00,FEW,,0.00,WeatherDisplay:10.37,2013-09-01 02:37:00,
2013-08-31 22:42:00,73.2,68.1,29.68,WSW,248,3.7,3.7,84,0.00,FEW,,0.00,WeatherDisplay:10.37,2013-09-01 02:42:00,
2013-08-31 22:47:00,73.0,67.9,29.69,SW,225,3.5,3.5,84,0.00,FEW,,0.00,WeatherDisplay:10.37,2013-09-01 02:47:00,
2013-08-31 22:52:00,72.9,68.1,29.69,WSW,248,3.5,3.5,85,0.00,FEW,,0.00,WeatherDisplay:10.37,2013-09-01 02:52:00,
2013-08-31 22:57:00,72.7,67.9,29.69,SW,225,4.6,4.6,85,0.00,FEW,,0.00,WeatherDisplay:10.37,2013-09-01 02:57:00,
2013-08-31 23:02:00,72.7,67.9,29.68,SW,225,5.8,5.8,85,0.00,FEW,,0.00,WeatherDisplay:10.37,2013-09-01 03:02:00,
2013-08-31 23:07:00,72.7,67.9,29.68,WSW,248,3.7,3.7,85,0.00,FEW,,0.00,WeatherDisplay:10.37,2013-09-01 03:07:00,
2013-08-31 23:12:00,72.7,67.9,29.68,SW,225,3.5,3.5,85,0.00,FEW,,0.00,WeatherDisplay:10.37,2013-09-01 03:12:00,
2013-08-31 23:17:00,72.7,67.9,29.68,WSW,248,4.2,4.2,85,0.00,FEW,,0.00,WeatherDisplay:10.37,2013-09-01 03:17:00,
2013-08-31 23:23:00,72.7,67.9,29.68,SW,225,3.5,3.5,85,0.00,FEW,,0.00,WeatherDisplay:10.37,2013-09-01 03:23:00,
2013-08-31 23:28:00,72.7,67.9,29.68,West,270,4.6,4.6,85,0.00,FEW,,0.00,WeatherDisplay:10.37,2013-09-01 03:28:00,
2013-08-31 23:33:00,72.7,67.9,29.68,SSW,202,2.7,2.7,85,0.00,FEW,,0.00,WeatherDisplay:10.37,2013-09-01 03:33:00,
2013-08-31 23:38:00,72.5,67.7,29.69,SW,225,2.7,2.7,85,0.00,FEW,,0.00,WeatherDisplay:10.37,2013-09-01 03:38:00,
2013-08-31 23:43:00,72.5,67.7,29.69,SW,225,3.5,3.5,85,0.00,FEW,,0.00,WeatherDisplay:10.37,2013-09-01 03:43:00,
2013-08-31 23:48:00,72.5,67.7,29.69,South,180,2.7,2.7,85,0.00,FEW,,0.00,WeatherDisplay:10.37,2013-09-01 03:48:00,
2013-08-31 23:53:00,72.5,67.7,29.69,WSW,248,3.5,3.5,85,0.00,FEW,,0.00,WeatherDisplay:10.37,2013-09-01 03:53:00,
2013-08-31 23:58:00,72.1,67.7,29.69,West,270,2.3,2.3,86,0.00,FEW,,0.00,WeatherDisplay:10.37,2013-09-01 03:58:00,